Location: Lawrence Hall of Science
(37.8785°N, 122.2415°W)
Time: 17:49:53
(UTC-07:00)

Cosmos 1461 - Visible Passes

Search period start: 26 July 2017 00:00
Search period end: 05 August 2017 00:00
Orbit: 520 x 652 km, 65.0° (Epoch: 26 July)

Date Brightness Start Highest point End Pass type
(mag) Time Alt. Az. Time Alt. Az. Time Alt. Az.
26 Jul 5.0 02:05:19 10° NNW 02:07:13 25° NNW 02:07:13 25° NNW visible
27 Jul 5.6 00:34:34 10° NNE 00:36:49 14° NE 00:36:49 14° NE visible
27 Jul 5.4 02:12:09 10° NW 02:13:13 17° NW 02:13:13 17° NW visible
28 Jul 5.3 00:40:36 10° N 00:42:55 20° NNE 00:42:55 20° NNE visible
28 Jul 5.8 02:19:10 10° NW 02:19:19 11° NW 02:19:19 11° NW visible
29 Jul 5.2 00:46:59 10° NNW 00:49:06 24° N 00:49:06 24° N visible
30 Jul 5.3 00:53:34 10° NNW 00:55:19 23° NNW 00:55:19 23° NNW visible
30 Jul 5.6 23:23:11 10° NNE 23:25:05 12° NE 23:25:12 12° NE visible
31 Jul 5.5 01:00:20 10° NNW 01:01:37 19° NNW 01:01:37 19° NNW visible
31 Jul 5.2 23:28:59 10° N 23:31:32 19° NE 23:31:32 19° NE visible
01 Aug 5.7 01:07:16 10° NW 01:07:58 14° NW 01:07:58 14° NW visible
01 Aug 4.9 23:35:17 10° N 23:37:56 26° NNE 23:37:56 26° NNE visible
02 Aug 4.7 23:41:49 10° NNW 23:44:22 31° N 23:44:22 31° N visible
03 Aug 5.5 22:12:00 10° NNE 22:13:10 11° NE 22:14:20 10° ENE visible
03 Aug 4.8 23:48:30 10° NNW 23:50:50 31° NNW 23:50:50 31° NNW visible
04 Aug 5.0 22:17:25 10° N 22:20:16 17° NE 22:20:55 16° ENE visible
